www.cux-wetter.de
Wetterdaten: Dienstag, 19.05.2009
Datum Zeit Temp. A. Feuchte A. Luftdruck Regen Wind Richtung Richtung Sonnenschein Solar Taupunkt Windchill Windben
19.05.2009 00:01 11,2 C 81 % 1018,5 hPa 0,0 l/m 5,2 km/h (1 Bft) S-SO 165 0 min 0 W/m 8,1 C 11,2 C 5,2 km/h (1 Bft)
19.05.2009 00:05 11,1 C 82 % 1018,5 hPa 0,0 l/m 3,7 km/h (1 Bft) S 170 0 min 0 W/m 8,1 C 11,1 C 3,7 km/h (1 Bft)
19.05.2009 00:10 11,1 C 82 % 1018,5 hPa 0,0 l/m 5,7 km/h (2 Bft) S-SO 160 0 min 0 W/m 8,1 C 11,1 C 5,7 km/h (2 Bft)
19.05.2009 00:15 11,0 C 82 % 1018,5 hPa 0,0 l/m 6,3 km/h (2 Bft) S 170 0 min 0 W/m 8,0 C 11,0 C 6,3 km/h (2 Bft)
19.05.2009 00:21 10,9 C 82 % 1018,5 hPa 0,0 l/m 7,0 km/h (2 Bft) S-SO 160 0 min 0 W/m 7,9 C 10,5 C 7,0 km/h (2 Bft)
19.05.2009 00:26 10,8 C 83 % 1018,5 hPa 0,0 l/m 7,4 km/h (2 Bft) S-SO 160 0 min 0 W/m 8,0 C 10,1 C 7,4 km/h (2 Bft)
19.05.2009 00:31 10,8 C 83 % 1018,5 hPa 0,0 l/m 6,5 km/h (2 Bft) S 175 0 min 0 W/m 8,0 C 10,8 C 6,5 km/h (2 Bft)
19.05.2009 00:36 10,7 C 83 % 1018,5 hPa 0,0 l/m 6,1 km/h (2 Bft) S-SO 165 0 min 0 W/m 7,9 C 10,7 C 6,1 km/h (2 Bft)
19.05.2009 00:41 10,7 C 83 % 1018,5 hPa 0,0 l/m 6,7 km/h (2 Bft) S-SO 165 0 min 0 W/m 7,9 C 10,5 C 6,7 km/h (2 Bft)
19.05.2009 00:45 10,7 C 83 % 1018,5 hPa 0,0 l/m 6,8 km/h (2 Bft) S-SO 165 0 min 0 W/m 7,9 C 10,4 C 6,8 km/h (2 Bft)
19.05.2009 00:50 10,6 C 83 % 1018,5 hPa 0,0 l/m 5,7 km/h (2 Bft) S-SO 160 0 min 0 W/m 7,8 C 10,6 C 5,7 km/h (2 Bft)
19.05.2009 00:55 10,6 C 83 % 1018,5 hPa 0,0 l/m 6,9 km/h (2 Bft) S-SO 160 0 min 0 W/m 7,8 C 10,3 C 6,9 km/h (2 Bft)
19.05.2009 01:01 10,5 C 83 % 1018,5 hPa 0,0 l/m 7,6 km/h (2 Bft) S 170 0 min 0 W/m 7,7 C 9,6 C 7,6 km/h (2 Bft)
19.05.2009 01:05 10,4 C 83 % 1018,5 hPa 0,0 l/m 5,4 km/h (2 Bft) S-SO 150 0 min 0 W/m 7,6 C 10,4 C 5,4 km/h (2 Bft)
19.05.2009 01:10 10,4 C 83 % 1018,5 hPa 0,0 l/m 7,9 km/h (2 Bft) S-SO 150 0 min 0 W/m 7,6 C 9,3 C 7,9 km/h (2 Bft)
19.05.2009 01:15 10,4 C 83 % 1018,5 hPa 0,0 l/m 6,8 km/h (2 Bft) S-SO 150 0 min 0 W/m 7,6 C 10,1 C 6,8 km/h (2 Bft)
19.05.2009 01:20 10,4 C 84 % 1018,5 hPa 0,0 l/m 5,4 km/h (2 Bft) S 170 0 min 0 W/m 7,8 C 10,4 C 5,4 km/h (2 Bft)
19.05.2009 01:26 10,3 C 84 % 1018,5 hPa 0,0 l/m 7,2 km/h (2 Bft) S-SO 165 0 min 0 W/m 7,7 C 9,7 C 7,2 km/h (2 Bft)
19.05.2009 01:31 10,2 C 84 % 1018,5 hPa 0,0 l/m 8,1 km/h (2 Bft) S-SO 165 0 min 0 W/m 7,6 C 9,0 C 8,1 km/h (2 Bft)
19.05.2009 01:36 10,2 C 84 % 1018,5 hPa 0,0 l/m 8,8 km/h (2 Bft) S-SO 160 0 min 0 W/m 7,6 C 8,5 C 8,8 km/h (2 Bft)
19.05.2009 01:41 10,1 C 84 % 1018,5 hPa 0,0 l/m 8,7 km/h (2 Bft) S-SO 160 0 min 0 W/m 7,5 C 8,5 C 8,7 km/h (2 Bft)
19.05.2009 01:46 10,1 C 84 % 1018,5 hPa 0,0 l/m 11,0 km/h (2 Bft) S 170 0 min 0 W/m 7,5 C 7,1 C 11,0 km/h (2 Bft)
19.05.2009 01:50 10,1 C 84 % 1018,5 hPa 0,0 l/m 10,5 km/h (2 Bft) S-SO 165 0 min 0 W/m 7,5 C 7,4 C 10,5 km/h (2 Bft)
19.05.2009 01:55 10,0 C 84 % 1018,5 hPa 0,0 l/m 10,9 km/h (2 Bft) S 170 0 min 0 W/m 7,4 C 7,1 C 10,9 km/h (2 Bft)
19.05.2009 02:00 10,0 C 84 % 1018,5 hPa 0,0 l/m 7,3 km/h (2 Bft) S-SO 160 0 min 0 W/m 7,4 C 9,3 C 7,3 km/h (2 Bft)
19.05.2009 02:06 10,0 C 84 % 1018,5 hPa 0,0 l/m 10,3 km/h (2 Bft) S-SO 165 0 min 0 W/m 7,4 C 7,4 C 10,3 km/h (2 Bft)
19.05.2009 02:10 9,9 C 85 % 1018,5 hPa 0,0 l/m 9,0 km/h (2 Bft) S-SO 160 0 min 0 W/m 7,5 C 8,1 C 9,0 km/h (2 Bft)
19.05.2009 02:15 9,9 C 85 % 1018,5 hPa 0,0 l/m 8,7 km/h (2 Bft) S 175 0 min 0 W/m 7,5 C 8,3 C 8,7 km/h (2 Bft)
19.05.2009 02:20 9,9 C 85 % 1018,5 hPa 0,0 l/m 8,9 km/h (2 Bft) S 170 0 min 0 W/m 7,5 C 8,2 C 8,9 km/h (2 Bft)
19.05.2009 02:26 9,8 C 85 % 1018,5 hPa 0,0 l/m 10,5 km/h (2 Bft) S 175 0 min 0 W/m 7,4 C 7,1 C 10,5 km/h (2 Bft)
19.05.2009 02:31 9,8 C 85 % 1018,5 hPa 0,0 l/m 10,5 km/h (2 Bft) S 170 0 min 0 W/m 7,4 C 7,1 C 10,5 km/h (2 Bft)
19.05.2009 02:36 9,8 C 85 % 1018,5 hPa 0,0 l/m 10,8 km/h (2 Bft) S 170 0 min 0 W/m 7,4 C 6,9 C 10,8 km/h (2 Bft)
19.05.2009 02:41 9,8 C 85 % 1018,5 hPa 0,0 l/m 11,4 km/h (2 Bft) S 180 0 min 0 W/m 7,4 C 6,6 C 11,4 km/h (2 Bft)
19.05.2009 02:46 9,7 C 86 % 1018,5 hPa 0,0 l/m 10,4 km/h (2 Bft) S 185 0 min 0 W/m 7,5 C 7,0 C 10,4 km/h (2 Bft)
19.05.2009 02:50 9,7 C 86 % 1018,5 hPa 0,0 l/m 13,7 km/h (3 Bft) S 170 0 min 0 W/m 7,5 C 5,3 C 13,7 km/h (3 Bft)
19.05.2009 02:55 9,7 C 86 % 1018,5 hPa 0,0 l/m 11,3 km/h (2 Bft) S 185 0 min 0 W/m 7,5 C 6,5 C 11,3 km/h (2 Bft)
19.05.2009 03:00 9,7 C 86 % 1018,5 hPa 0,0 l/m 10,5 km/h (2 Bft) S 175 0 min 0 W/m 7,5 C 7,0 C 10,5 km/h (2 Bft)
19.05.2009 03:06 9,7 C 86 % 1018,5 hPa 0,0 l/m 9,4 km/h (2 Bft) S 180 0 min 0 W/m 7,5 C 7,6 C 9,4 km/h (2 Bft)
19.05.2009 03:10 9,7 C 86 % 1018,5 hPa 0,0 l/m 8,3 km/h (2 Bft) S 180 0 min 0 W/m 7,5 C 8,3 C 8,3 km/h (2 Bft)
19.05.2009 03:15 9,7 C 86 % 1018,5 hPa 0,0 l/m 10,6 km/h (2 Bft) S 170 0 min 0 W/m 7,5 C 6,9 C 10,6 km/h (2 Bft)
19.05.2009 03:20 9,7 C 86 % 1018,5 hPa 0,0 l/m 12,6 km/h (3 Bft) S 175 0 min 0 W/m 7,5 C 5,9 C 12,6 km/h (3 Bft)
19.05.2009 03:26 9,6 C 86 % 1018,5 hPa 0,0 l/m 10,6 km/h (2 Bft) S 170 0 min 0 W/m 7,4 C 6,8 C 10,6 km/h (2 Bft)
19.05.2009 03:31 9,6 C 86 % 1018,5 hPa 0,0 l/m 8,8 km/h (2 Bft) S 170 0 min 0 W/m 7,4 C 7,9 C 8,8 km/h (2 Bft)
19.05.2009 03:36 9,6 C 86 % 1018,5 hPa 0,0 l/m 9,7 km/h (2 Bft) S 180 0 min 0 W/m 7,4 C 7,3 C 9,7 km/h (2 Bft)
19.05.2009 03:41 9,6 C 86 % 1018,5 hPa 0,0 l/m 10,6 km/h (2 Bft) S 175 0 min 0 W/m 7,4 C 6,8 C 10,6 km/h (2 Bft)
19.05.2009 03:46 9,6 C 86 % 1018,5 hPa 0,0 l/m 9,8 km/h (2 Bft) S 180 0 min 0 W/m 7,4 C 7,3 C 9,8 km/h (2 Bft)
19.05.2009 03:50 9,6 C 86 % 1018,5 hPa 0,0 l/m 10,1 km/h (2 Bft) S 180 0 min 0 W/m 7,4 C 7,1 C 10,1 km/h (2 Bft)
19.05.2009 03:55 9,6 C 86 % 1018,5 hPa 0,0 l/m 12,5 km/h (2 Bft) S 180 0 min 0 W/m 7,4 C 5,8 C 12,5 km/h (2 Bft)
19.05.2009 04:00 9,6 C 86 % 1018,5 hPa 0,0 l/m 12,5 km/h (2 Bft) S 180 0 min 0 W/m 7,4 C 5,8 C 12,5 km/h (2 Bft)
19.05.2009 04:06 9,6 C 86 % 1018,5 hPa 0,0 l/m 11,6 km/h (2 Bft) S 185 0 min 0 W/m 7,4 C 6,3 C 11,6 km/h (2 Bft)
19.05.2009 04:10 9,6 C 87 % 1018,5 hPa 0,0 l/m 11,0 km/h (2 Bft) S 180 0 min 0 W/m 7,5 C 6,6 C 11,0 km/h (2 Bft)
19.05.2009 04:15 9,6 C 87 % 1018,5 hPa 0,0 l/m 11,8 km/h (2 Bft) S 185 0 min 0 W/m 7,5 C 6,2 C 11,8 km/h (2 Bft)
19.05.2009 04:20 9,6 C 87 % 1018,5 hPa 0,0 l/m 10,0 km/h (2 Bft) S 185 0 min 0 W/m 7,5 C 7,2 C 10,0 km/h (2 Bft)
19.05.2009 04:26 9,7 C 87 % 1018,5 hPa 0,0 l/m 10,0 km/h (2 Bft) S 185 0 min 0 W/m 7,6 C 7,3 C 10,0 km/h (2 Bft)
19.05.2009 04:31 9,8 C 86 % 1018,5 hPa 0,0 l/m 8,1 km/h (2 Bft) S-SW 200 0 min 0 W/m 7,6 C 8,6 C 8,1 km/h (2 Bft)
19.05.2009 04:36 9,8 C 86 % 1018,5 hPa 0,0 l/m 8,7 km/h (2 Bft) S-SW 210 0 min 0 W/m 7,6 C 8,2 C 8,7 km/h (2 Bft)
19.05.2009 04:41 9,8 C 86 % 1018,5 hPa 0,0 l/m 8,1 km/h (2 Bft) S-SW 195 0 min 0 W/m 7,6 C 8,6 C 8,1 km/h (2 Bft)
19.05.2009 04:46 9,8 C 86 % 1018,5 hPa 0,0 l/m 8,1 km/h (2 Bft) S-SW 195 0 min 0 W/m 7,6 C 8,6 C 8,1 km/h (2 Bft)
19.05.2009 04:50 9,8 C 86 % 1018,5 hPa 0,0 l/m 7,0 km/h (2 Bft) S 190 0 min 0 W/m 7,6 C 9,4 C 7,0 km/h (2 Bft)
19.05.2009 04:55 9,8 C 87 % 1018,5 hPa 0,0 l/m 8,7 km/h (2 Bft) S 185 0 min 0 W/m 7,7 C 8,2 C 8,7 km/h (2 Bft)
19.05.2009 05:00 9,9 C 87 % 1018,5 hPa 0,0 l/m 9,0 km/h (2 Bft) S 175 0 min 0 W/m 7,8 C 8,1 C 9,0 km/h (2 Bft)
19.05.2009 05:06 9,9 C 87 % 1018,5 hPa 0,0 l/m 9,7 km/h (2 Bft) S 180 0 min 0 W/m 7,8 C 7,7 C 9,7 km/h (2 Bft)
19.05.2009 05:10 9,9 C 87 % 1018,5 hPa 0,0 l/m 10,5 km/h (2 Bft) S 180 0 min 0 W/m 7,8 C 7,2 C 10,5 km/h (2 Bft)
19.05.2009 05:15 9,9 C 87 % 1018,5 hPa 0,0 l/m 10,0 km/h (2 Bft) S 180 0 min 0 W/m 7,8 C 7,5 C 10,0 km/h (2 Bft)
19.05.2009 05:20 9,9 C 87 % 1018,5 hPa 0,0 l/m 9,6 km/h (2 Bft) S 175 0 min 0 W/m 7,8 C 7,7 C 9,6 km/h (2 Bft)
19.05.2009 05:26 9,9 C 87 % 1018,5 hPa 0,0 l/m 9,9 km/h (2 Bft) S 185 0 min 0 W/m 7,8 C 7,5 C 9,9 km/h (2 Bft)
19.05.2009 05:31 9,9 C 87 % 1018,5 hPa 0,0 l/m 7,2 km/h (2 Bft) S 180 0 min 0 W/m 7,8 C 9,3 C 7,2 km/h (2 Bft)
19.05.2009 05:36 9,9 C 87 % 1018,5 hPa 0,0 l/m 4,8 km/h (1 Bft) S 180 0 min 0 W/m 7,8 C 9,9 C 4,8 km/h (1 Bft)
19.05.2009 05:41 10,0 C 87 % 1018,5 hPa 0,0 l/m 6,9 km/h (2 Bft) S 175 0 min 0 W/m 7,9 C 9,6 C 6,9 km/h (2 Bft)
19.05.2009 05:46 10,0 C 87 % 1018,5 hPa 0,0 l/m 5,8 km/h (2 Bft) S 180 0 min 0 W/m 7,9 C 10,0 C 5,8 km/h (2 Bft)
19.05.2009 05:50 10,0 C 87 % 1018,5 hPa 0,0 l/m 6,5 km/h (2 Bft) S 180 0 min 0 W/m 7,9 C 10,0 C 6,5 km/h (2 Bft)
19.05.2009 05:55 10,0 C 87 % 1018,5 hPa 0,0 l/m 5,7 km/h (2 Bft) S 170 0 min 0 W/m 7,9 C 10,0 C 5,7 km/h (2 Bft)
19.05.2009 06:00 10,0 C 87 % 1018,5 hPa 0,0 l/m 7,1 km/h (2 Bft) S-SW 195 0 min 0 W/m 7,9 C 9,5 C 7,1 km/h (2 Bft)
19.05.2009 06:06 10,0 C 87 % 1018,5 hPa 0,0 l/m 7,5 km/h (2 Bft) S-SW 205 0 min 0 W/m 7,9 C 9,2 C 7,5 km/h (2 Bft)
19.05.2009 06:10 10,0 C 87 % 1018,5 hPa 0,0 l/m 7,5 km/h (2 Bft) S-SW 205 0 min 0 W/m 7,9 C 9,2 C 7,5 km/h (2 Bft)
19.05.2009 06:15 10,0 C 87 % 1018,5 hPa 0,0 l/m 5,9 km/h (2 Bft) S-SW 205 0 min 0 W/m 7,9 C 10,0 C 5,9 km/h (2 Bft)
19.05.2009 06:20 10,0 C 87 % 1018,5 hPa 0,0 l/m 9,5 km/h (2 Bft) SW 215 0 min 0 W/m 7,9 C 7,9 C 9,5 km/h (2 Bft)
19.05.2009 06:26 10,1 C 87 % 1018,5 hPa 0,0 l/m 6,5 km/h (2 Bft) SW 235 0 min 0 W/m 8,0 C 10,1 C 6,5 km/h (2 Bft)
19.05.2009 06:31 10,2 C 87 % 1019,5 hPa 0,0 l/m 6,3 km/h (2 Bft) W-SW 240 0 min 0 W/m 8,1 C 10,2 C 6,3 km/h (2 Bft)
19.05.2009 06:36 10,4 C 87 % 1019,5 hPa 0,0 l/m 10,5 km/h (2 Bft) W-SW 255 0 min 0 W/m 8,3 C 7,8 C 10,5 km/h (2 Bft)
19.05.2009 06:41 10,6 C 87 % 1019,5 hPa 0,0 l/m 9,6 km/h (2 Bft) W-SW 245 0 min 0 W/m 8,5 C 8,5 C 9,6 km/h (2 Bft)
19.05.2009 06:46 10,6 C 86 % 1019,5 hPa 0,0 l/m 8,5 km/h (2 Bft) W-SW 250 0 min 0 W/m 8,4 C 9,2 C 8,5 km/h (2 Bft)
19.05.2009 06:50 10,8 C 85 % 1018,5 hPa 0,0 l/m 10,4 km/h (2 Bft) W 260 0 min 0 W/m 8,4 C 8,3 C 10,4 km/h (2 Bft)
19.05.2009 06:55 10,8 C 84 % 1019,5 hPa 0,0 l/m 9,4 km/h (2 Bft) W-SW 255 0 min 0 W/m 8,2 C 8,8 C 9,4 km/h (2 Bft)
19.05.2009 07:00 10,9 C 84 % 1019,5 hPa 0,0 l/m 11,0 km/h (2 Bft) W-SW 255 0 min 0 W/m 8,3 C 8,1 C 11,0 km/h (2 Bft)
19.05.2009 07:06 11,1 C 83 % 1019,5 hPa 0,0 l/m 11,0 km/h (2 Bft) W-SW 255 0 min 0 W/m 8,3 C 8,3 C 11,0 km/h (2 Bft)
19.05.2009 07:10 11,1 C 83 % 1019,5 hPa 0,0 l/m 9,2 km/h (2 Bft) W-SW 240 0 min 0 W/m 8,3 C 9,3 C 9,2 km/h (2 Bft)
19.05.2009 07:15 11,2 C 83 % 1019,5 hPa 0,0 l/m 8,1 km/h (2 Bft) W-SW 250 0 min 0 W/m 8,4 C 10,0 C 8,1 km/h (2 Bft)
19.05.2009 07:20 11,2 C 83 % 1019,5 hPa 0,0 l/m 8,9 km/h (2 Bft) W-SW 255 0 min 0 W/m 8,4 C 9,6 C 8,9 km/h (2 Bft)
19.05.2009 07:26 11,4 C 84 % 1019,5 hPa 0,0 l/m 10,1 km/h (2 Bft) W-SW 255 0 min 0 W/m 8,8 C 9,1 C 10,1 km/h (2 Bft)
19.05.2009 07:31 11,6 C 84 % 1019,5 hPa 0,0 l/m 9,6 km/h (2 Bft) W 260 0 min 0 W/m 9,0 C 9,6 C 9,6 km/h (2 Bft)
19.05.2009 07:36 11,6 C 84 % 1019,5 hPa 0,0 l/m 12,4 km/h (2 Bft) W 260 0 min 0 W/m 9,0 C 8,2 C 12,4 km/h (2 Bft)
19.05.2009 07:41 11,9 C 84 % 1019,5 hPa 0,0 l/m 14,8 km/h (3 Bft) W 260 0 min 0 W/m 9,3 C 7,5 C 14,8 km/h (3 Bft)
19.05.2009 07:45 12,0 C 84 % 1019,5 hPa 0,0 l/m 13,3 km/h (3 Bft) W 260 0 min 0 W/m 9,4 C 8,2 C 13,3 km/h (3 Bft)
19.05.2009 07:50 12,3 C 84 % 1019,5 hPa 0,0 l/m 13,8 km/h (3 Bft) W 260 0 min 0 W/m 9,7 C 8,4 C 13,8 km/h (3 Bft)
19.05.2009 07:55 12,5 C 84 % 1019,5 hPa 0,0 l/m 14,1 km/h (3 Bft) W-SW 255 0 min 0 W/m 9,9 C 8,5 C 14,1 km/h (3 Bft)
19.05.2009 08:01 12,6 C 83 % 1019,5 hPa 0,0 l/m 12,7 km/h (3 Bft) W 265 0 min 0 W/m 9,8 C 9,2 C 12,7 km/h (3 Bft)
19.05.2009 08:05 12,7 C 82 % 1019,5 hPa 0,0 l/m 15,1 km/h (3 Bft) W-SW 250 0 min 0 W/m 9,7 C 8,4 C 15,1 km/h (3 Bft)
19.05.2009 08:10 12,9 C 81 % 1019,5 hPa 0,0 l/m 14,5 km/h (3 Bft) W 260 0 min 0 W/m 9,7 C 8,8 C 14,5 km/h (3 Bft)
19.05.2009 08:15 13,0 C 78 % 1019,5 hPa 0,0 l/m 15,7 km/h (3 Bft) W-SW 250 0 min 0 W/m 9,3 C 8,5 C 15,7 km/h (3 Bft)
19.05.2009 08:21 13,3 C 75 % 1019,5 hPa 0,0 l/m 13,9 km/h (3 Bft) W 260 0 min 0 W/m 9,0 C 9,5 C 13,9 km/h (3 Bft)
19.05.2009 08:26 13,3 C 74 % 1019,5 hPa 0,0 l/m 14,3 km/h (3 Bft) W 260 0 min 0 W/m 8,8 C 9,4 C 14,3 km/h (3 Bft)
19.05.2009 08:31 13,4 C 73 % 1019,5 hPa 0,0 l/m 16,5 km/h (3 Bft) W 265 0 min 0 W/m 8,7 C 8,7 C 16,5 km/h (3 Bft)
19.05.2009 08:36 13,6 C 71 % 1019,5 hPa 0,0 l/m 13,5 km/h (3 Bft) W 270 0 min 0 W/m 8,4 C 10,1 C 13,5 km/h (3 Bft)
19.05.2009 08:40 13,6 C 71 % 1019,5 hPa 0,0 l/m 13,9 km/h (3 Bft) W 260 0 min 0 W/m 8,4 C 9,9 C 13,9 km/h (3 Bft)
19.05.2009 08:45 13,6 C 70 % 1020,5 hPa 0,0 l/m 16,8 km/h (3 Bft) W 265 0 min 0 W/m 8,2 C 8,9 C 16,8 km/h (3 Bft)
19.05.2009 08:50 13,8 C 69 % 1019,5 hPa 0,0 l/m 16,3 km/h (3 Bft) W 265 0 min 0 W/m 8,2 C 9,3 C 16,3 km/h (3 Bft)
19.05.2009 08:56 13,8 C 68 % 1019,5 hPa 0,0 l/m 13,5 km/h (3 Bft) W 265 0 min 0 W/m 8,0 C 10,3 C 13,5 km/h (3 Bft)
19.05.2009 09:01 13,8 C 69 % 1019,5 hPa 0,0 l/m 13,8 km/h (3 Bft) W 280 0 min 0 W/m 8,2 C 10,2 C 13,8 km/h (3 Bft)
19.05.2009 09:05 13,8 C 69 % 1020,5 hPa 0,0 l/m 13,8 km/h (3 Bft) NW 305 0 min 0 W/m 8,2 C 10,2 C 13,8 km/h (3 Bft)
19.05.2009 09:10 13,8 C 67 % 1020,5 hPa 0,0 l/m 11,8 km/h (2 Bft) W 270 0 min 0 W/m 7,8 C 11,0 C 11,8 km/h (2 Bft)
19.05.2009 09:16 13,8 C 67 % 1020,5 hPa 0,0 l/m 11,8 km/h (2 Bft) W-NW 300 0 min 0 W/m 7,8 C 11,0 C 11,8 km/h (2 Bft)
19.05.2009 09:21 14,0 C 67 % 1020,5 hPa 0,0 l/m 14,6 km/h (3 Bft) W 265 0 min 0 W/m 8,0 C 10,1 C 14,6 km/h (3 Bft)
19.05.2009 09:26 14,1 C 67 % 1020,5 hPa 0,0 l/m 12,0 km/h (2 Bft) W-NW 295 0 min 0 W/m 8,1 C 11,2 C 12,0 km/h (2 Bft)
19.05.2009 09:31 14,2 C 66 % 1020,5 hPa 0,0 l/m 13,3 km/h (3 Bft) W-NW 295 0 min 0 W/m 7,9 C 10,8 C 13,3 km/h (3 Bft)
19.05.2009 09:35 14,2 C 67 % 1020,5 hPa 0,0 l/m 8,8 km/h (2 Bft) W 280 0 min 0 W/m 8,2 C 12,8 C 8,8 km/h (2 Bft)
19.05.2009 09:40 14,2 C 67 % 1020,5 hPa 0,0 l/m 10,8 km/h (2 Bft) W 280 0 min 0 W/m 8,2 C 11,9 C 10,8 km/h (2 Bft)
19.05.2009 09:46 14,2 C 67 % 1020,5 hPa 0,0 l/m 9,9 km/h (2 Bft) W-NW 285 0 min 0 W/m 8,2 C 12,3 C 9,9 km/h (2 Bft)
19.05.2009 09:51 14,2 C 66 % 1020,5 hPa 0,0 l/m 7,5 km/h (2 Bft) W 265 0 min 0 W/m 7,9 C 13,5 C 7,5 km/h (2 Bft)
19.05.2009 09:56 14,2 C 67 % 1020,5 hPa 0,0 l/m 13,1 km/h (3 Bft) W-NW 295 0 min 0 W/m 8,2 C 10,9 C 13,1 km/h (3 Bft)
19.05.2009 10:01 14,2 C 67 % 1020,5 hPa 0,0 l/m 12,7 km/h (3 Bft) W 275 0 min 0 W/m 8,2 C 11,1 C 12,7 km/h (3 Bft)
19.05.2009 10:06 14,2 C 67 % 1020,5 hPa 0,0 l/m 10,6 km/h (2 Bft) W-NW 290 0 min 0 W/m 8,2 C 12,0 C 10,6 km/h (2 Bft)
19.05.2009 10:11 14,4 C 64 % 1020,5 hPa 0,0 l/m 12,4 km/h (2 Bft) W-SW 255 0 min 0 W/m 7,7 C 11,4 C 12,4 km/h (2 Bft)
19.05.2009 10:16 14,4 C 65 % 1020,5 hPa 0,0 l/m 11,5 km/h (2 Bft) W 265 0 min 0 W/m 7,9 C 11,8 C 11,5 km/h (2 Bft)
19.05.2009 10:21 14,5 C 65 % 1020,5 hPa 0,0 l/m 10,5 km/h (2 Bft) W-SW 255 0 min 0 W/m 8,0 C 12,3 C 10,5 km/h (2 Bft)
19.05.2009 10:25 14,6 C 66 % 1020,5 hPa 0,0 l/m 8,3 km/h (2 Bft) W-NW 290 0 min 0 W/m 8,3 C 13,5 C 8,3 km/h (2 Bft)
19.05.2009 10:30 15,0 C 65 % 1020,5 hPa 0,0 l/m 9,4 km/h (2 Bft) W 270 0 min 0 W/m 8,5 C 13,4 C 9,4 km/h (2 Bft)
19.05.2009 10:35 15,0 C 65 % 1020,5 hPa 0,0 l/m 13,3 km/h (3 Bft) NW 305 0 min 0 W/m 8,5 C 11,8 C 13,3 km/h (3 Bft)
19.05.2009 10:41 15,0 C 65 % 1020,5 hPa 0,0 l/m 8,7 km/h (2 Bft) W 280 0 min 0 W/m 8,5 C 13,7 C 8,7 km/h (2 Bft)
19.05.2009 10:46 15,2 C 65 % 1020,5 hPa 0,0 l/m 6,4 km/h (2 Bft) W-NW 295 0 min 0 W/m 8,7 C 15,2 C 6,4 km/h (2 Bft)
19.05.2009 10:51 15,3 C 63 % 1020,5 hPa 0,0 l/m 11,3 km/h (2 Bft) W 270 0 min 0 W/m 8,3 C 12,9 C 11,3 km/h (2 Bft)
19.05.2009 10:56 15,5 C 63 % 1020,5 hPa 0,0 l/m 11,4 km/h (2 Bft) W-NW 300 0 min 0 W/m 8,5 C 13,1 C 11,4 km/h (2 Bft)
19.05.2009 11:00 15,6 C 61 % 1020,5 hPa 0,0 l/m 11,0 km/h (2 Bft) W-NW 285 0 min 0 W/m 8,1 C 13,4 C 11,0 km/h (2 Bft)
19.05.2009 11:06 15,7 C 62 % 1020,5 hPa 0,0 l/m 5,6 km/h (2 Bft) NW 305 0 min 0 W/m 8,4 C 15,7 C 5,6 km/h (2 Bft)
19.05.2009 11:11 15,8 C 62 % 1020,5 hPa 0,0 l/m 12,8 km/h (3 Bft) W-SW 255 0 min 0 W/m 8,5 C 12,9 C 12,8 km/h (3 Bft)
19.05.2009 11:15 15,9 C 62 % 1020,5 hPa 0,0 l/m 12,0 km/h (2 Bft) W 265 0 min 0 W/m 8,6 C 13,3 C 12,0 km/h (2 Bft)
19.05.2009 11:20 16,0 C 62 % 1020,5 hPa 0,0 l/m 6,5 km/h (2 Bft) W-SW 255 0 min 0 W/m 8,7 C 16,0 C 6,5 km/h (2 Bft)
19.05.2009 11:25 16,1 C 63 % 1020,5 hPa 0,0 l/m 11,4 km/h (2 Bft) N-NW 330 0 min 0 W/m 9,1 C 13,8 C 11,4 km/h (2 Bft)
19.05.2009 11:31 16,2 C 62 % 1020,5 hPa 0,0 l/m 12,5 km/h (2 Bft) NW 310 0 min 0 W/m 8,9 C 13,5 C 12,5 km/h (2 Bft)
19.05.2009 11:36 16,3 C 63 % 1020,5 hPa 0,0 l/m 11,5 km/h (2 Bft) W-NW 290 0 min 0 W/m 9,2 C 14,0 C 11,5 km/h (2 Bft)
19.05.2009 11:41 16,4 C 61 % 1020,5 hPa 0,0 l/m 10,3 km/h (2 Bft) W 280 0 min 0 W/m 8,9 C 14,5 C 10,3 km/h (2 Bft)
19.05.2009 11:46 16,5 C 60 % 1020,5 hPa 0,0 l/m 15,5 km/h (3 Bft) W-NW 290 0 min 0 W/m 8,7 C 12,9 C 15,5 km/h (3 Bft)
19.05.2009 11:50 16,7 C 54 % 1020,5 hPa 0,0 l/m 15,5 km/h (3 Bft) SW 235 0 min 0 W/m 7,3 C 13,1 C 15,5 km/h (3 Bft)
19.05.2009 11:55 17,0 C 57 % 1020,5 hPa 0,0 l/m 14,2 km/h (3 Bft) W 275 0 min 0 W/m 8,4 C 13,9 C 14,2 km/h (3 Bft)
19.05.2009 12:00 17,2 C 57 % 1020,5 hPa 0,0 l/m 15,6 km/h (3 Bft) W 260 0 min 0 W/m 8,6 C 13,7 C 15,6 km/h (3 Bft)
19.05.2009 12:06 17,3 C 52 % 1020,5 hPa 0,0 l/m 13,5 km/h (3 Bft) W 260 0 min 0 W/m 7,3 C 14,4 C 13,5 km/h (3 Bft)
19.05.2009 12:10 17,3 C 54 % 1020,5 hPa 0,0 l/m 8,7 km/h (2 Bft) W 275 0 min 0 W/m 7,9 C 16,2 C 8,7 km/h (2 Bft)
19.05.2009 12:15 17,5 C 54 % 1020,5 hPa 0,0 l/m 9,5 km/h (2 Bft) W 280 0 min 0 W/m 8,1 C 16,1 C 9,5 km/h (2 Bft)
19.05.2009 12:20 17,5 C 53 % 1020,5 hPa 0,0 l/m 10,5 km/h (2 Bft) W-NW 285 0 min 0 W/m 7,8 C 15,7 C 10,5 km/h (2 Bft)
19.05.2009 12:26 17,4 C 57 % 1020,5 hPa 0,0 l/m 1,0 km/h (0 Bft) NO 55 0 min 0 W/m 8,8 C 17,4 C 1,0 km/h (0 Bft)
19.05.2009 12:31 17,4 C 58 % 1019,5 hPa 0,0 l/m 13,1 km/h (3 Bft) S-SO 165 0 min 0 W/m 9,1 C 14,7 C 13,1 km/h (3 Bft)
19.05.2009 12:36 17,2 C 60 % 1019,5 hPa 0,0 l/m 8,1 km/h (2 Bft) O 100 0 min 0 W/m 9,4 C 16,4 C 8,1 km/h (2 Bft)
19.05.2009 12:41 17,0 C 61 % 1020,5 hPa 0,0 l/m 11,3 km/h (2 Bft) O-NO 70 0 min 0 W/m 9,4 C 14,8 C 11,3 km/h (2 Bft)
19.05.2009 12:45 17,0 C 61 % 1019,5 hPa 0,0 l/m 10,0 km/h (2 Bft) N-NO 15 0 min 0 W/m 9,4 C 15,3 C 10,0 km/h (2 Bft)
19.05.2009 12:50 17,2 C 60 % 1019,5 hPa 0,0 l/m 6,3 km/h (2 Bft) NW 325 0 min 0 W/m 9,4 C 17,2 C 6,3 km/h (2 Bft)
19.05.2009 12:55 17,4 C 59 % 1019,5 hPa 0,0 l/m 4,8 km/h (1 Bft) N-NW 340 0 min 0 W/m 9,3 C 17,4 C 4,8 km/h (1 Bft)
19.05.2009 13:01 17,5 C 59 % 1019,5 hPa 0,0 l/m 9,0 km/h (2 Bft) N-NO 25 0 min 0 W/m 9,4 C 16,3 C 9,0 km/h (2 Bft)
19.05.2009 13:05 17,4 C 59 % 1019,5 hPa 0,0 l/m 10,5 km/h (2 Bft) N 10 0 min 0 W/m 9,3 C 15,6 C 10,5 km/h (2 Bft)
19.05.2009 13:10 17,3 C 59 % 1019,5 hPa 0,0 l/m 5,0 km/h (1 Bft) NW 315 0 min 0 W/m 9,2 C 17,3 C 5,0 km/h (1 Bft)
19.05.2009 13:15 17,3 C 60 % 1019,5 hPa 0,0 l/m 7,2 km/h (2 Bft) N 10 0 min 0 W/m 9,5 C 16,9 C 7,2 km/h (2 Bft)
19.05.2009 13:21 17,4 C 61 % 1019,5 hPa 0,0 l/m 10,5 km/h (2 Bft) N 10 0 min 0 W/m 9,8 C 15,6 C 10,5 km/h (2 Bft)
19.05.2009 13:26 17,3 C 60 % 1019,5 hPa 0,0 l/m 9,3 km/h (2 Bft) O-NO 75 0 min 0 W/m 9,5 C 15,9 C 9,3 km/h (2 Bft)
19.05.2009 13:31 17,2 C 61 % 1019,5 hPa 0,0 l/m 6,8 km/h (2 Bft) NO 40 0 min 0 W/m 9,6 C 17,0 C 6,8 km/h (2 Bft)
19.05.2009 13:35 17,2 C 61 % 1019,5 hPa 0,0 l/m 7,4 km/h (2 Bft) N 10 0 min 0 W/m 9,6 C 16,7 C 7,4 km/h (2 Bft)
19.05.2009 13:40 17,4 C 62 % 1019,5 hPa 0,0 l/m 6,2 km/h (2 Bft) NO 50 0 min 0 W/m 10,0 C 17,4 C 6,2 km/h (2 Bft)
19.05.2009 13:45 17,6 C 62 % 1019,5 hPa 0,0 l/m 6,2 km/h (2 Bft) NO 50 0 min 0 W/m 10,2 C 17,6 C 6,2 km/h (2 Bft)
19.05.2009 13:51 17,6 C 62 % 1019,5 hPa 0,0 l/m 9,3 km/h (2 Bft) NO 50 0 min 0 W/m 10,2 C 16,3 C 9,3 km/h (2 Bft)
19.05.2009 13:56 17,9 C 63 % 1019,5 hPa 0,0 l/m 10,3 km/h (2 Bft) NO 50 0 min 0 W/m 10,8 C 16,2 C 10,3 km/h (2 Bft)
19.05.2009 14:01 18,0 C 62 % 1019,5 hPa 0,0 l/m 13,8 km/h (3 Bft) N-NO 25 0 min 0 W/m 10,6 C 15,2 C 13,8 km/h (3 Bft)
19.05.2009 14:05 18,0 C 62 % 1019,5 hPa 0,0 l/m 6,5 km/h (2 Bft) O-NO 65 0 min 0 W/m 10,6 C 18,0 C 6,5 km/h (2 Bft)
19.05.2009 14:11 18,1 C 61 % 1019,5 hPa 0,0 l/m 9,7 km/h (2 Bft) NO 40 0 min 0 W/m 10,5 C 16,7 C 9,7 km/h (2 Bft)
19.05.2009 14:16 18,0 C 61 % 1019,5 hPa 0,0 l/m 12,7 km/h (3 Bft) N-NO 25 0 min 0 W/m 10,4 C 15,5 C 12,7 km/h (3 Bft)
19.05.2009 14:21 17,8 C 62 % 1019,5 hPa 0,0 l/m 10,3 km/h (2 Bft) NO 35 0 min 0 W/m 10,4 C 16,1 C 10,3 km/h (2 Bft)
19.05.2009 14:26 17,8 C 62 % 1019,5 hPa 0,0 l/m 9,6 km/h (2 Bft) NO 35 0 min 0 W/m 10,4 C 16,4 C 9,6 km/h (2 Bft)
19.05.2009 14:30 17,6 C 62 % 1019,5 hPa 0,0 l/m 10,5 km/h (2 Bft) NO 35 0 min 0 W/m 10,2 C 15,8 C 10,5 km/h (2 Bft)
19.05.2009 14:35 17,5 C 62 % 1019,5 hPa 0,0 l/m 9,2 km/h (2 Bft) N 5 0 min 0 W/m 10,1 C 16,2 C 9,2 km/h (2 Bft)
19.05.2009 14:41 17,5 C 62 % 1019,5 hPa 0,0 l/m 10,0 km/h (2 Bft) N-NO 15 0 min 0 W/m 10,1 C 15,9 C 10,0 km/h (2 Bft)
19.05.2009 14:46 17,5 C 63 % 1019,5 hPa 0,0 l/m 11,1 km/h (2 Bft) N-NO 25 0 min 0 W/m 10,4 C 15,5 C 11,1 km/h (2 Bft)
19.05.2009 14:51 17,7 C 62 % 1019,5 hPa 0,0 l/m 9,7 km/h (2 Bft) N-NO 20 0 min 0 W/m 10,3 C 16,2 C 9,7 km/h (2 Bft)
19.05.2009 14:56 17,8 C 63 % 1019,5 hPa 0,0 l/m 8,1 km/h (2 Bft) N-NO 25 0 min 0 W/m 10,7 C 17,0 C 8,1 km/h (2 Bft)
19.05.2009 15:00 17,9 C 63 % 1019,5 hPa 0,0 l/m 8,7 km/h (2 Bft) NO 45 0 min 0 W/m 10,8 C 16,8 C 8,7 km/h (2 Bft)
19.05.2009 15:06 17,8 C 62 % 1019,5 hPa 0,0 l/m 10,0 km/h (2 Bft) NO 50 0 min 0 W/m 10,4 C 16,2 C 10,0 km/h (2 Bft)
19.05.2009 15:11 17,8 C 62 % 1019,5 hPa 0,0 l/m 7,4 km/h (2 Bft) N-NO 30 0 min 0 W/m 10,4 C 17,3 C 7,4 km/h (2 Bft)
19.05.2009 15:15 17,6 C 62 % 1019,5 hPa 0,0 l/m 10,8 km/h (2 Bft) N-NO 25 0 min 0 W/m 10,2 C 15,7 C 10,8 km/h (2 Bft)
19.05.2009 15:20 17,3 C 62 % 1019,5 hPa 0,0 l/m 6,6 km/h (2 Bft) NO 55 0 min 0 W/m 9,9 C 17,2 C 6,6 km/h (2 Bft)
19.05.2009 15:25 17,0 C 63 % 1019,5 hPa 0,0 l/m 7,5 km/h (2 Bft) N-NO 30 0 min 0 W/m 9,9 C 16,4 C 7,5 km/h (2 Bft)
19.05.2009 15:31 17,0 C 63 % 1019,5 hPa 0,0 l/m 7,0 km/h (2 Bft) N-NO 20 0 min 0 W/m 9,9 C 16,7 C 7,0 km/h (2 Bft)
19.05.2009 15:36 16,8 C 64 % 1019,5 hPa 0,0 l/m 0,9 km/h (0 Bft) NO 35 0 min 0 W/m 10,0 C 16,8 C 0,9 km/h (0 Bft)
19.05.2009 15:41 16,6 C 64 % 1019,5 hPa 0,0 l/m 7,1 km/h (2 Bft) NO 40 0 min 0 W/m 9,8 C 16,2 C 7,1 km/h (2 Bft)
19.05.2009 15:46 16,5 C 64 % 1019,5 hPa 0,0 l/m 7,9 km/h (2 Bft) NO 45 0 min 0 W/m 9,7 C 15,7 C 7,9 km/h (2 Bft)
19.05.2009 15:50 16,4 C 65 % 1019,5 hPa 0,0 l/m 4,6 km/h (1 Bft) N-NO 30 0 min 0 W/m 9,8 C 16,4 C 4,6 km/h (1 Bft)
19.05.2009 15:55 16,2 C 65 % 1019,5 hPa 0,0 l/m 0,4 km/h (0 Bft) N 360 0 min 0 W/m 9,6 C 16,2 C 0,4 km/h (0 Bft)
19.05.2009 16:01 16,2 C 65 % 1019,5 hPa 0,0 l/m 0,9 km/h (0 Bft) O 80 0 min 0 W/m 9,6 C 16,2 C 0,9 km/h (0 Bft)
19.05.2009 16:05 16,1 C 66 % 1019,5 hPa 0,0 l/m 0,3 km/h (0 Bft) SO 135 0 min 0 W/m 9,7 C 16,1 C 0,3 km/h (0 Bft)
19.05.2009 16:10 16,0 C 66 % 1019,5 hPa 0,0 l/m 0,4 km/h (0 Bft) O-SO 115 0 min 0 W/m 9,7 C 16,0 C 0,4 km/h (0 Bft)
19.05.2009 16:15 16,2 C 68 % 1018,5 hPa 0,3 l/m 3,7 km/h (1 Bft) O 80 0 min 0 W/m 10,3 C 16,2 C 3,7 km/h (1 Bft)
19.05.2009 16:21 16,3 C 69 % 1018,5 hPa 0,0 l/m 0,6 km/h (0 Bft) O 80 0 min 0 W/m 10,6 C 16,3 C 0,6 km/h (0 Bft)
19.05.2009 16:26 16,4 C 71 % 1018,5 hPa 0,0 l/m 0,1 km/h (0 Bft) N-NO 20 0 min 0 W/m 11,1 C 16,4 C 0,1 km/h (0 Bft)
19.05.2009 16:31 16,5 C 72 % 1018,5 hPa 0,0 l/m 0,4 km/h (0 Bft) N-NO 30 0 min 0 W/m 11,4 C 16,5 C 0,4 km/h (0 Bft)
19.05.2009 16:35 16,6 C 72 % 1018,5 hPa 0,0 l/m 8,3 km/h (2 Bft) O 90 0 min 0 W/m 11,5 C 15,6 C 8,3 km/h (2 Bft)
19.05.2009 16:40 16,8 C 71 % 1018,5 hPa 0,0 l/m 7,1 km/h (2 Bft) O 85 0 min 0 W/m 11,5 C 16,4 C 7,1 km/h (2 Bft)
19.05.2009 16:45 17,1 C 71 % 1018,5 hPa 0,0 l/m 12,5 km/h (2 Bft) O 80 0 min 0 W/m 11,8 C 14,5 C 12,5 km/h (2 Bft)
19.05.2009 16:51 17,2 C 71 % 1018,5 hPa 0,0 l/m 0,4 km/h (0 Bft) NO 50 0 min 0 W/m 11,9 C 17,2 C 0,4 km/h (0 Bft)
19.05.2009 16:56 17,2 C 71 % 1018,5 hPa 0,0 l/m 1,6 km/h (1 Bft) N-NO 15 0 min 0 W/m 11,9 C 17,2 C 1,6 km/h (1 Bft)
19.05.2009 17:01 17,3 C 70 % 1018,5 hPa 0,0 l/m 7,8 km/h (2 Bft) O-SO 115 0 min 0 W/m 11,8 C 16,6 C 7,8 km/h (2 Bft)
19.05.2009 17:06 17,3 C 70 % 1018,5 hPa 0,0 l/m 8,6 km/h (2 Bft) O 95 0 min 0 W/m 11,8 C 16,2 C 8,6 km/h (2 Bft)
19.05.2009 17:11 17,2 C 70 % 1018,5 hPa 0,0 l/m 9,4 km/h (2 Bft) O-SO 105 0 min 0 W/m 11,7 C 15,8 C 9,4 km/h (2 Bft)
19.05.2009 17:16 17,1 C 70 % 1018,5 hPa 0,0 l/m 10,6 km/h (2 Bft) O-SO 110 0 min 0 W/m 11,6 C 15,2 C 10,6 km/h (2 Bft)
19.05.2009 17:20 17,1 C 70 % 1018,5 hPa 0,0 l/m 6,1 km/h (2 Bft) O 95 0 min 0 W/m 11,6 C 17,1 C 6,1 km/h (2 Bft)
19.05.2009 17:25 17,1 C 71 % 1018,5 hPa 0,0 l/m 7,7 km/h (2 Bft) O 100 0 min 0 W/m 11,8 C 16,5 C 7,7 km/h (2 Bft)
19.05.2009 17:30 17,1 C 70 % 1018,5 hPa 0,0 l/m 6,4 km/h (2 Bft) O 80 0 min 0 W/m 11,6 C 17,1 C 6,4 km/h (2 Bft)
19.05.2009 17:36 17,1 C 71 % 1018,5 hPa 0,0 l/m 6,1 km/h (2 Bft) SO 130 0 min 0 W/m 11,8 C 17,1 C 6,1 km/h (2 Bft)
19.05.2009 17:41 17,1 C 71 % 1018,5 hPa 0,0 l/m 9,2 km/h (2 Bft) O 100 0 min 0 W/m 11,8 C 15,8 C 9,2 km/h (2 Bft)
19.05.2009 17:46 17,2 C 71 % 1018,5 hPa 0,0 l/m 9,2 km/h (2 Bft) O 100 0 min 0 W/m 11,9 C 15,9 C 9,2 km/h (2 Bft)
19.05.2009 17:50 17,4 C 71 % 1018,5 hPa 0,0 l/m 5,8 km/h (2 Bft) O 95 0 min 0 W/m 12,1 C 17,4 C 5,8 km/h (2 Bft)
19.05.2009 17:55 17,5 C 71 % 1018,5 hPa 0,0 l/m 9,6 km/h (2 Bft) O-SO 115 0 min 0 W/m 12,2 C 16,0 C 9,6 km/h (2 Bft)
19.05.2009 18:00 17,5 C 70 % 1018,5 hPa 0,0 l/m 6,2 km/h (2 Bft) SO 130 0 min 0 W/m 12,0 C 17,5 C 6,2 km/h (2 Bft)
19.05.2009 18:06 17,6 C 69 % 1017,5 hPa 0,0 l/m 9,6 km/h (2 Bft) SO 125 0 min 0 W/m 11,8 C 16,1 C 9,6 km/h (2 Bft)
19.05.2009 18:10 17,7 C 69 % 1017,5 hPa 0,0 l/m 13,2 km/h (3 Bft) SO 130 0 min 0 W/m 11,9 C 15,0 C 13,2 km/h (3 Bft)
19.05.2009 18:15 17,8 C 68 % 1017,5 hPa 0,0 l/m 8,3 km/h (2 Bft) SO 130 0 min 0 W/m 11,8 C 16,9 C 8,3 km/h (2 Bft)
19.05.2009 18:21 17,8 C 69 % 1017,5 hPa 0,0 l/m 16,3 km/h (3 Bft) SO 130 0 min 0 W/m 12,0 C 14,2 C 16,3 km/h (3 Bft)
19.05.2009 18:26 17,8 C 69 % 1017,5 hPa 0,0 l/m 14,6 km/h (3 Bft) SO 130 0 min 0 W/m 12,0 C 14,7 C 14,6 km/h (3 Bft)
19.05.2009 18:31 17,8 C 68 % 1017,5 hPa 0,0 l/m 9,5 km/h (2 Bft) O-SO 110 0 min 0 W/m 11,8 C 16,4 C 9,5 km/h (2 Bft)
19.05.2009 18:36 17,7 C 68 % 1017,5 hPa 0,0 l/m 6,4 km/h (2 Bft) SO 125 0 min 0 W/m 11,7 C 17,7 C 6,4 km/h (2 Bft)
19.05.2009 18:40 17,6 C 68 % 1017,5 hPa 0,0 l/m 9,7 km/h (2 Bft) O-SO 120 0 min 0 W/m 11,6 C 16,1 C 9,7 km/h (2 Bft)
19.05.2009 18:45 17,5 C 68 % 1017,5 hPa 0,0 l/m 8,4 km/h (2 Bft) O-NO 65 0 min 0 W/m 11,5 C 16,5 C 8,4 km/h (2 Bft)
19.05.2009 18:50 17,4 C 68 % 1017,5 hPa 0,0 l/m 8,7 km/h (2 Bft) SO 125 0 min 0 W/m 11,4 C 16,3 C 8,7 km/h (2 Bft)
19.05.2009 18:56 17,4 C 68 % 1017,5 hPa 0,0 l/m 8,6 km/h (2 Bft) O-SO 120 0 min 0 W/m 11,4 C 16,4 C 8,6 km/h (2 Bft)
19.05.2009 19:01 17,4 C 68 % 1017,5 hPa 0,0 l/m 16,5 km/h (3 Bft) SO 135 0 min 0 W/m 11,4 C 13,7 C 16,5 km/h (3 Bft)
19.05.2009 19:05 17,3 C 68 % 1017,5 hPa 0,0 l/m 5,4 km/h (2 Bft) O-SO 120 0 min 0 W/m 11,3 C 17,3 C 5,4 km/h (2 Bft)
19.05.2009 19:11 17,2 C 68 % 1017,5 hPa 0,0 l/m 11,0 km/h (2 Bft) O 95 0 min 0 W/m 11,2 C 15,2 C 11,0 km/h (2 Bft)
19.05.2009 19:16 17,1 C 68 % 1017,5 hPa 0,0 l/m 11,8 km/h (2 Bft) SO 135 0 min 0 W/m 11,1 C 14,8 C 11,8 km/h (2 Bft)
19.05.2009 19:21 17,0 C 68 % 1017,5 hPa 0,0 l/m 11,1 km/h (2 Bft) SO 135 0 min 0 W/m 11,0 C 14,9 C 11,1 km/h (2 Bft)
19.05.2009 19:25 16,9 C 69 % 1017,5 hPa 0,0 l/m 15,6 km/h (3 Bft) SO 125 0 min 0 W/m 11,2 C 13,3 C 15,6 km/h (3 Bft)
19.05.2009 19:30 16,8 C 69 % 1017,5 hPa 0,0 l/m 7,6 km/h (2 Bft) SO 140 0 min 0 W/m 11,1 C 16,2 C 7,6 km/h (2 Bft)
19.05.2009 19:35 16,8 C 68 % 1017,5 hPa 0,0 l/m 13,3 km/h (3 Bft) SO 135 0 min 0 W/m 10,9 C 13,9 C 13,3 km/h (3 Bft)
19.05.2009 19:41 16,8 C 68 % 1017,5 hPa 0,0 l/m 12,5 km/h (2 Bft) SO 130 0 min 0 W/m 10,9 C 14,2 C 12,5 km/h (2 Bft)
19.05.2009 19:46 16,7 C 69 % 1017,5 hPa 0,0 l/m 8,3 km/h (2 Bft) O-SO 110 0 min 0 W/m 11,0 C 15,7 C 8,3 km/h (2 Bft)
19.05.2009 19:51 16,7 C 69 % 1017,5 hPa 0,0 l/m 10,0 km/h (2 Bft) SO 125 0 min 0 W/m 11,0 C 15,0 C 10,0 km/h (2 Bft)
19.05.2009 19:55 16,6 C 69 % 1017,5 hPa 0,0 l/m 9,0 km/h (2 Bft) SO 125 0 min 0 W/m 10,9 C 15,3 C 9,0 km/h (2 Bft)
19.05.2009 20:00 16,5 C 69 % 1017,5 hPa 0,0 l/m 10,0 km/h (2 Bft) SO 135 0 min 0 W/m 10,8 C 14,8 C 10,0 km/h (2 Bft)
19.05.2009 20:06 16,5 C 69 % 1017,5 hPa 0,0 l/m 9,3 km/h (2 Bft) S-SO 155 0 min 0 W/m 10,8 C 15,1 C 9,3 km/h (2 Bft)
19.05.2009 20:10 16,4 C 69 % 1017,5 hPa 0,0 l/m 13,5 km/h (3 Bft) SO 140 0 min 0 W/m 10,7 C 13,4 C 13,5 km/h (3 Bft)
19.05.2009 20:15 16,3 C 69 % 1017,5 hPa 0,0 l/m 7,1 km/h (2 Bft) SO 135 0 min 0 W/m 10,6 C 15,9 C 7,1 km/h (2 Bft)
19.05.2009 20:20 16,3 C 70 % 1017,5 hPa 0,0 l/m 5,9 km/h (2 Bft) S-SO 155 0 min 0 W/m 10,8 C 16,3 C 5,9 km/h (2 Bft)
19.05.2009 20:26 16,2 C 70 % 1017,5 hPa 0,0 l/m 1,6 km/h (1 Bft) O-SO 110 0 min 0 W/m 10,7 C 16,2 C 1,6 km/h (1 Bft)
19.05.2009 20:31 16,2 C 70 % 1017,5 hPa 0,0 l/m 4,7 km/h (1 Bft) S-SO 150 0 min 0 W/m 10,7 C 16,2 C 4,7 km/h (1 Bft)
19.05.2009 20:36 16,1 C 70 % 1017,5 hPa 0,0 l/m 0,0 km/h (0 Bft) S-SO 160 0 min 0 W/m 10,6 C 16,1 C 0,0 km/h (0 Bft)
19.05.2009 20:40 16,0 C 70 % 1017,5 hPa 0,0 l/m 0,0 km/h (0 Bft) S-SO 160 0 min 0 W/m 10,5 C 16,0 C 0,0 km/h (0 Bft)
19.05.2009 20:45 16,0 C 71 % 1017,5 hPa 0,0 l/m 8,0 km/h (2 Bft) SW 215 0 min 0 W/m 10,7 C 15,2 C 8,0 km/h (2 Bft)
19.05.2009 20:51 16,0 C 72 % 1018,5 hPa 0,0 l/m 37,3 km/h (5 Bft) W 275 0 min 0 W/m 11,0 C 8,1 C 37,3 km/h (5 Bft)
19.05.2009 20:56 15,3 C 76 % 1018,5 hPa 0,6 l/m 34,9 km/h (5 Bft) W-NW 295 0 min 0 W/m 11,1 C 7,4 C 34,9 km/h (5 Bft)
19.05.2009 21:01 14,6 C 79 % 1018,5 hPa 0,0 l/m 24,3 km/h (4 Bft) W 275 0 min 0 W/m 11,0 C 8,2 C 24,3 km/h (4 Bft)
19.05.2009 21:06 14,1 C 82 % 1018,5 hPa 0,6 l/m 31,3 km/h (5 Bft) W-NW 300 0 min 0 W/m 11,1 C 6,2 C 31,3 km/h (5 Bft)
19.05.2009 21:11 13,9 C 82 % 1018,5 hPa 0,6 l/m 22,7 km/h (4 Bft) NW 315 0 min 0 W/m 10,9 C 7,6 C 22,7 km/h (4 Bft)
19.05.2009 21:16 13,8 C 83 % 1018,5 hPa 0,0 l/m 15,3 km/h (3 Bft) W-NW 295 0 min 0 W/m 11,0 C 9,6 C 15,3 km/h (3 Bft)
19.05.2009 21:21 13,8 C 83 % 1018,5 hPa 0,0 l/m 10,6 km/h (2 Bft) W-NW 285 0 min 0 W/m 11,0 C 11,5 C 10,6 km/h (2 Bft)
19.05.2009 21:25 13,7 C 83 % 1018,5 hPa 0,0 l/m 10,5 km/h (2 Bft) W-SW 255 0 min 0 W/m 10,9 C 11,4 C 10,5 km/h (2 Bft)
19.05.2009 21:30 13,7 C 83 % 1018,5 hPa 0,0 l/m 10,1 km/h (2 Bft) W 260 0 min 0 W/m 10,9 C 11,6 C 10,1 km/h (2 Bft)
19.05.2009 21:36 13,5 C 83 % 1018,5 hPa 0,0 l/m 10,4 km/h (2 Bft) W-SW 250 0 min 0 W/m 10,7 C 11,3 C 10,4 km/h (2 Bft)
19.05.2009 21:41 13,4 C 83 % 1018,5 hPa 0,0 l/m 7,4 km/h (2 Bft) W-SW 250 0 min 0 W/m 10,6 C 12,8 C 7,4 km/h (2 Bft)
19.05.2009 21:46 13,4 C 83 % 1018,5 hPa 0,0 l/m 5,3 km/h (1 Bft) W-SW 250 0 min 0 W/m 10,6 C 13,4 C 5,3 km/h (1 Bft)
19.05.2009 21:50 13,3 C 83 % 1018,5 hPa 0,0 l/m 2,6 km/h (1 Bft) W-SW 250 0 min 0 W/m 10,5 C 13,3 C 2,6 km/h (1 Bft)
19.05.2009 21:55 13,2 C 83 % 1018,5 hPa 0,0 l/m 4,8 km/h (1 Bft) W-SW 250 0 min 0 W/m 10,4 C 13,2 C 4,8 km/h (1 Bft)
19.05.2009 22:00 13,2 C 83 % 1018,5 hPa 0,0 l/m 4,4 km/h (1 Bft) W-SW 250 0 min 0 W/m 10,4 C 13,2 C 4,4 km/h (1 Bft)
19.05.2009 22:05 13,2 C 83 % 1018,5 hPa 0,0 l/m 0,0 km/h (0 Bft) W-SW 250 0 min 0 W/m 10,4 C 13,2 C 0,0 km/h (0 Bft)
19.05.2009 22:10 13,1 C 83 % 1018,5 hPa 0,0 l/m 0,1 km/h (0 Bft) W-SW 250 0 min 0 W/m 10,3 C 13,1 C 0,1 km/h (0 Bft)
19.05.2009 22:15 13,0 C 84 % 1018,5 hPa 0,0 l/m 2,8 km/h (1 Bft) W-SW 250 0 min 0 W/m 10,4 C 13,0 C 2,8 km/h (1 Bft)
19.05.2009 22:21 12,9 C 83 % 1018,5 hPa 0,0 l/m 0,1 km/h (0 Bft) W-SW 250 0 min 0 W/m 10,1 C 12,9 C 0,1 km/h (0 Bft)
19.05.2009 22:26 12,8 C 84 % 1018,5 hPa 0,0 l/m 0,0 km/h (0 Bft) W-SW 250 0 min 0 W/m 10,2 C 12,8 C 0,0 km/h (0 Bft)
19.05.2009 22:31 12,8 C 84 % 1018,5 hPa 0,0 l/m 0,8 km/h (0 Bft) W-SW 250 0 min 0 W/m 10,2 C 12,8 C 0,8 km/h (0 Bft)
19.05.2009 22:35 12,7 C 84 % 1018,5 hPa 0,0 l/m 0,0 km/h (0 Bft) W-SW 250 0 min 0 W/m 10,1 C 12,7 C 0,0 km/h (0 Bft)
19.05.2009 22:40 12,6 C 84 % 1018,5 hPa 0,0 l/m 0,0 km/h (0 Bft) W-SW 250 0 min 0 W/m 10,0 C 12,6 C 0,0 km/h (0 Bft)
19.05.2009 22:46 12,6 C 85 % 1018,5 hPa 0,0 l/m 0,0 km/h (0 Bft) W-SW 250 0 min 0 W/m 10,1 C 12,6 C 0,0 km/h (0 Bft)
19.05.2009 22:51 12,6 C 85 % 1018,5 hPa 0,0 l/m 0,0 km/h (0 Bft) W-SW 250 0 min 0 W/m 10,1 C 12,6 C 0,0 km/h (0 Bft)
19.05.2009 22:56 12,6 C 85 % 1018,5 hPa 0,0 l/m 0,0 km/h (0 Bft) W-SW 250 0 min 0 W/m 10,1 C 12,6 C 0,0 km/h (0 Bft)
19.05.2009 23:00 12,5 C 85 % 1018,5 hPa 0,0 l/m 0,0 km/h (0 Bft) W-SW 250 0 min 0 W/m 10,0 C 12,5 C 0,0 km/h (0 Bft)
19.05.2009 23:06 12,5 C 85 % 1018,5 hPa 0,0 l/m 0,0 km/h (0 Bft) W-SW 250 0 min 0 W/m 10,0 C 12,5 C 0,0 km/h (0 Bft)
19.05.2009 23:11 12,5 C 86 % 1018,5 hPa 0,0 l/m 0,1 km/h (0 Bft) W-SW 250 0 min 0 W/m 10,2 C 12,5 C 0,1 km/h (0 Bft)
19.05.2009 23:15 12,5 C 86 % 1018,5 hPa 0,0 l/m 1,0 km/h (0 Bft) S 180 0 min 0 W/m 10,2 C 12,5 C 1,0 km/h (0 Bft)
19.05.2009 23:20 12,4 C 85 % 1018,5 hPa 0,0 l/m 4,5 km/h (1 Bft) S 175 0 min 0 W/m 9,9 C 12,4 C 4,5 km/h (1 Bft)
19.05.2009 23:25 12,4 C 85 % 1018,5 hPa 0,0 l/m 0,0 km/h (0 Bft) S 170 0 min 0 W/m 9,9 C 12,4 C 0,0 km/h (0 Bft)
19.05.2009 23:31 12,3 C 86 % 1018,5 hPa 0,0 l/m 0,0 km/h (0 Bft) S 170 0 min 0 W/m 10,0 C 12,3 C 0,0 km/h (0 Bft)
19.05.2009 23:36 12,2 C 86 % 1018,5 hPa 0,0 l/m 0,3 km/h (0 Bft) S 170 0 min 0 W/m 9,9 C 12,2 C 0,3 km/h (0 Bft)
19.05.2009 23:41 12,2 C 86 % 1018,5 hPa 0,0 l/m 0,0 km/h (0 Bft) S 170 0 min 0 W/m 9,9 C 12,2 C 0,0 km/h (0 Bft)
19.05.2009 23:45 12,2 C 86 % 1018,5 hPa 0,0 l/m 0,0 km/h (0 Bft) S 170 0 min 0 W/m 9,9 C 12,2 C 0,0 km/h (0 Bft)
19.05.2009 23:50 12,2 C 86 % 1018,5 hPa 0,0 l/m 0,0 km/h (0 Bft) S 170 0 min 0 W/m 9,9 C 12,2 C 0,0 km/h (0 Bft)
19.05.2009 23:56 12,2 C 86 % 1018,5 hPa 0,0 l/m 0,0 km/h (0 Bft) S 170 0 min 0 W/m 9,9 C 12,2 C 0,0 km/h (0 Bft)
_ Min-Zeit 03:26 12:06 18:06 - 20:36 - - - - 11:50 02:50 20:36
Minimum _ 9,6 C 52 % 1017,5 hPa - 0,0 km/h (0 Bft) - - - - 7,3 C 5,3 C 0,0 km/h (0 Bft)
_ Max-Zeit 14:11 04:10 08:45 20:56 20:51 - - 00:01 00:01 17:55 14:05 20:51
Maximum _ 18,1 C 87 % 1020,5 hPa 0,6 l/m 37,3 km/h
W (5 Bft)
- - 0 min 0 W/m 12,2 C 18,0 C 37,3 km/h
W (5 Bft)
Durchschnitt _ 13,9 C 75 % 1018,9 hPa #2,1 l/m 8,9 km/h (2 Bft) S - #0 min. 0 W/m 9,3 C 12,3 C 8,9 km/h (2 Bft)
copyright by Holger Just